Location: Unnamed
(51.5169°N, 0.1311°W)
Time: 21:24:48
(UTC+01:00)

Tiros 1 - Pass Details

Date: 07 August 2024
Orbit: 623 x 655 km, 48.4° (Epoch: 16 September)

Event Time Altitude Azimuth Distance (km) Brightness Sun altitude
Rises 10:01:47 0° 260° (W) 2,977 10.2 39.3°
Reaches altitude 10° 10:04:09 10° 257° (WSW) 2,064 9.5 39.6°
Maximum altitude 10:08:50 60° 178° (S) 747 8.4 40.2°
Drops below altitude 10° 10:13:30 10° 99° (E) 2,050 10.8 40.9°
Sets 10:15:51 0° 95° (E) 2,956 11.3 41.2°
